Theta_e
309 308 310 308 307 309 307 309 311 309 309 311 310 309 304 302 302 301 300 300 301 302 303 304 306 307 308 310 313 317 320 322 322 322 322 322 321 320 318 316 316 317 317 317
307 307 308 306 306 308 307 309 309 308 308 308 309 308 303 301 301 301 299 299 300 300 302 303 304 305 305 306 306 306 307 308 307 307 307 308 310 310 310 310 311 313 313 314
308 311 306 307 306 307 307 308 308 311 309 306 306 308 305 301 300 300 299 299 300 301 302 302 303 303 303 304 305 305 305 305 305 305 305 305 305 307 309 308 307 306 307 307
308 308 310 308 308 307 309 307 308 309 311 313 306 313 307 302 301 299 299 299 300 301 301 301 301 302 303 304 304 303 303 302 302 303 303 303 303 304 303 303 303 303 302 302
314 309 310 310 310 308 311 307 308 308 307 308 308 310 308 302 302 300 298 299 299 299 300 300 300 301 303 302 302 301 301 301 300 301 301 301 301 301 300 299 299 298 298 298
311 309 308 310 308 308 304 306 305 303 305 311 309 310 309 305 304 301 299 299 299 298 297 298 298 299 301 300 300 299 300 299 298 298 298 298 297 296 295 294 294 293 292 292
309 308 307 307 307 306 307 310 313 311 311 314 306 307 309 305 303 302 300 299 299 298 297 298 298 299 299 299 299 298 297 298 296 296 295 295 294 294 294 293 292 292 291 291
314 314 308 305 308 308 308 310 314 314 310 309 307 311 311 303 302 302 301 301 300 298 297 297 298 298 298 298 297 296 295 295 294 294 294 293 293 294 294 292 292 291 291 290
312 314 306 306 306 307 308 310 308 308 300 309 309 307 305 301 300 299 300 300 299 298 298 298 298 298 298 296 295 294 294 293 293 293 293 292 292 292 291 291 290 289 288 288
311 312 308 306 307 307 308 307 312 308 310 309 307 307 308 305 302 298 297 299 299 298 298 298 299 299 298 296 295 293 293 292 293 292 291 291 291 290 290 289 289 288 288 287
309 311 310 307 308 310 309 310 308 308 306 307 305 306 302 304 302 300 299 300 300 299 299 299 300 300 298 296 294 293 292 291 291 291 291 290 290 289 289 289 288 288 287 286
308 309 309 309 306 304 308 309 308 310 308 304 306 308 302 302 301 301 300 301 301 300 300 300 300 300 299 298 295 293 291 291 290 290 290 290 289 289 289 289 288 288 287 286
309 310 307 308 308 306 307 307 307 305 304 305 308 306 301 301 300 302 302 302 302 301 300 300 299 299 300 298 296 293 291 290 290 289 289 289 289 289 289 288 288 288 287 286
310 309 313 318 312 308 308 307 306 309 304 307 309 306 304 303 302 301 302 303 303 302 302 301 300 300 299 298 296 293 291 289 289 289 289 289 289 289 288 288 288 288 287 286
309 315 306 303 303 304 304 307 306 308 310 311 309 308 304 305 303 304 305 303 303 302 301 300 300 300 299 297 296 293 290 289 289 289 289 289 289 289 288 288 288 288 288 286
304 310 305 304 301 300 305 304 305 306 306 307 305 306 303 305 303 302 304 302 302 301 300 299 298 297 298 297 296 294 291 289 289 289 289 289 289 288 288 288 288 288 288 286
308 303 309 311 297 300 308 303 303 303 301 306 306 306 295 297 298 302 303 302 301 300 298 297 296 295 295 297 296 294 291 290 290 290 289 289 289 288 288 288 288 288 287 285
304 306 307 298 298 308 300 292 298 303 302 298 293 291 296 298 299 299 299 298 297 297 295 294 293 293 294 295 294 292 292 291 291 290 290 289 288 288 288 287 287 287 286 284
296 302 298 303 302 302 296 291 293 298 298 296 298 296 293 293 294 294 295 295 294 292 292 292 292 293 294 294 293 291 290 290 290 289 289 289 288 288 287 287 286 286 285 283
297 298 305 296 305 306 296 290 291 293 295 289 296 292 290 291 290 290 294 292 292 292 292 292 292 292 291 291 290 290 290 290 289 289 289 288 288 287 286 286 285 285 285 286
298 299 305 300 303 300 293 289 292 296 296 289 292 292 291 289 294 293 292 292 291 291 291 291 292 291 291 290 290 290 290 289 289 289 288 288 287 286 286 285 284 285 285 282
298 301 301 299 300 303 290 289 295 294 291 294 294 294 293 295 294 292 292 291 291 291 291 291 291 291 290 290 290 290 290 289 289 288 288 287 286 285 285 284 285 285 282 282
297 298 299 299 300 291 291 292 294 294 294 293 294 294 294 294 292 292 291 291 291 291 291 291 291 290 290 290 290 290 290 289 289 288 287 286 285 284 284 284 285 283 281 280
289 288 292 293 291 290 290 293 293 294 294 293 293 293 292 292 292 291 291 291 291 291 291 291 290 290 290 290 290 290 289 289 288 287 286 285 284 283 283 284 283 282 280 278
291 290 289 290 289 290 291 292 293 293 293 292 292 291 291 292 291 291 291 291 291 291 290 290 290 290 290 290 289 289 288 288 287 286 285 284 283 282 283 282 281 279 277 277
288 289 290 291 291 292 293 294 294 293 293 292 290 290 290 291 291 291 291 291 291 291 290 290 290 290 290 289 289 289 288 287 286 285 284 283 282 282 282 281 279 277 276 276
Wind_Speed
4 4 9 12 9 3 5 4 5 2 3 0 5 7 3 5 7 6 8 10 12 15 16 17 18 18 18 18 20 20 20 21 18 17 16 12 9 7 2 2 3 3 6 9
4 7 8 5 5 4 4 4 5 4 2 5 1 7 2 4 3 4 8 10 14 17 19 23 26 28 30 31 32 30 29 26 25 24 23 20 17 15 13 11 7 4 3 4
8 4 9 8 4 6 5 6 5 6 0 0 2 5 4 2 8 10 11 13 15 17 19 23 27 28 29 30 28 28 27 26 24 22 20 18 15 14 12 10 8 7 5 3
6 4 6 4 6 8 6 8 6 5 4 4 1 4 4 4 4 7 15 17 19 20 21 22 24 26 25 24 22 23 23 22 21 17 14 12 13 12 13 12 11 10 9 8
6 7 5 4 6 7 6 6 7 3 4 1 2 1 6 4 7 7 14 17 18 20 21 22 21 22 21 19 19 19 18 17 16 12 10 11 13 15 14 13 10 10 10 10
4 2 6 7 3 4 10 7 6 4 3 2 6 6 4 6 6 8 18 24 23 22 20 19 19 18 17 16 15 13 12 13 12 11 11 12 14 15 12 11 10 10 9 9
1 4 4 6 6 3 2 6 1 1 1 5 1 3 6 4 3 11 22 29 26 25 23 21 19 16 14 13 12 10 8 10 10 9 9 10 11 11 10 9 9 7 8 9
8 5 11 6 7 8 7 7 5 7 4 2 1 6 5 2 2 5 22 30 27 27 24 21 19 15 13 11 9 7 7 7 8 8 7 8 8 8 8 7 8 9 10 12
7 6 1 3 4 4 6 5 3 7 2 2 4 4 3 2 1 3 19 31 32 30 26 23 20 15 13 10 8 6 5 6 6 4 4 4 5 6 7 8 9 9 11 12
7 2 1 3 5 4 4 7 3 2 3 5 3 3 5 5 7 6 13 29 34 30 28 24 20 16 13 11 8 8 6 5 5 5 3 1 3 4 6 7 9 11 13 13
6 4 1 4 6 10 3 4 2 4 3 5 1 5 5 6 9 14 21 32 36 34 31 26 22 17 14 11 10 9 10 9 7 5 3 2 3 5 7 10 12 14 15 16
9 5 4 7 2 2 1 7 7 5 5 3 2 5 2 3 11 20 25 35 35 33 31 28 24 21 17 13 13 13 12 11 10 8 6 4 5 6 9 12 13 15 16 18
11 5 3 4 3 2 6 5 4 5 3 8 5 4 0 1 8 21 23 29 31 30 29 27 26 25 21 17 17 16 16 15 14 11 8 8 9 10 12 13 15 17 19 21
19 5 10 13 5 7 7 7 6 6 4 6 9 6 6 6 8 15 23 25 28 28 28 27 27 25 23 22 20 19 19 19 17 14 12 12 13 14 15 16 18 20 22 23
8 11 4 2 2 3 4 9 12 13 12 9 7 12 10 12 12 22 25 22 24 26 25 24 22 22 26 25 24 22 21 22 19 16 15 16 19 20 19 18 20 22 24 24
1 5 4 4 2 3 3 7 8 9 4 7 3 9 7 17 12 13 18 23 23 23 19 17 19 19 21 25 27 24 24 23 21 20 20 22 24 24 22 21 22 24 26 27
8 6 4 5 3 4 6 11 12 6 5 10 11 9 5 5 10 17 18 23 22 18 16 15 14 15 19 23 24 25 23 22 23 23 25 26 27 26 24 24 24 25 28 29
6 7 2 4 3 6 2 2 3 10 6 4 2 4 10 9 15 13 14 17 16 13 12 13 15 17 20 19 20 20 21 23 24 26 27 27 27 27 26 25 26 27 29 30
3 5 3 5 5 4 4 5 8 9 10 10 9 6 12 11 9 7 13 12 11 10 11 12 14 16 16 17 18 19 19 20 23 25 25 27 28 28 28 27 27 28 29 31
1 3 3 3 5 10 2 2 8 5 6 9 20 8 13 16 3 5 16 12 8 9 11 12 13 15 16 18 17 16 18 22 25 25 26 29 30 30 29 28 28 29 31 36
4 0 8 5 4 5 6 8 14 6 6 7 17 15 23 5 12 10 12 7 5 7 9 12 16 18 17 16 15 21 22 25 24 26 28 30 31 29 28 28 28 31 33 32
7 8 4 3 1 7 14 5 9 5 9 14 14 17 20 19 15 13 9 5 7 12 15 19 20 22 21 18 21 24 26 26 28 29 29 30 28 27 28 29 30 32 32 32
4 5 5 7 5 1 30 2 11 18 20 16 17 18 17 17 21 17 11 8 11 14 19 20 20 23 26 25 26 28 29 30 29 28 29 27 26 27 28 30 31 31 29 32
4 3 3 4 5 4 22 9 19 15 14 13 12 14 16 19 22 19 13 12 13 16 19 20 20 24 27 28 28 29 29 29 28 28 26 26 26 27 28 30 29 29 28 29
3 9 5 1 1 3 8 28 17 20 16 13 13 12 15 15 19 22 20 15 14 15 18 22 22 24 23 23 26 26 26 26 27 25 25 26 26 26 28 28 27 27 27 28
7 6 5 4 14 10 13 27 27 23 24 18 13 13 13 14 18 19 21 19 18 18 18 21 24 23 23 24 24 23 24 25 25 25 25 25 26 28 28 28 26 25 26 25
Wind_Direction
149 127 210 194 197 121 136 170 209 211 243 310 252 256 47 80 84 105 108 104 99 93 90 92 92 93 96 98 93 91 92 89 91 100 105 113 124 120 85 27 22 353 320 311
71 225 217 134 155 149 149 161 237 283 207 175 338 263 93 70 91 125 125 111 104 101 101 100 101 101 98 94 93 93 92 92 89 87 84 87 90 91 85 82 75 68 348 313
173 202 157 140 145 169 203 188 194 213 248 80 344 281 198 99 129 139 142 135 128 119 111 108 106 101 97 91 87 85 85 84 80 80 81 83 88 94 97 90 84 77 69 44
227 219 155 163 192 161 205 200 172 158 127 230 99 270 264 182 173 179 166 161 150 140 131 122 115 109 100 91 88 87 82 75 75 81 85 96 101 105 92 79 68 60 51 44
227 167 169 179 207 166 223 129 149 133 131 88 242 152 257 138 217 201 196 179 165 151 143 136 127 118 108 101 96 89 81 73 76 80 98 95 90 85 81 73 61 53 47 38
230 191 167 193 117 163 147 84 55 57 83 270 215 182 248 195 198 179 189 186 176 163 154 147 135 122 112 101 94 91 82 66 73 81 85 81 83 89 85 72 55 42 37 31
186 213 182 149 97 73 189 118 138 349 238 230 75 164 257 220 191 187 184 188 181 171 166 158 147 136 126 121 115 107 91 87 91 94 94 95 99 89 67 49 39 36 26 19
174 250 170 190 180 176 188 172 165 199 199 222 7 223 247 138 222 231 195 186 181 180 174 166 158 151 144 139 135 127 115 103 104 106 101 102 85 54 40 35 25 11 8 7
177 247 71 69 133 148 183 190 148 105 59 81 210 274 252 151 126 155 178 186 190 187 182 176 169 167 162 160 159 158 145 132 121 110 99 93 54 37 28 21 16 9 3 357
208 127 279 170 108 49 164 151 90 3 189 244 260 266 235 212 193 163 179 190 194 191 190 186 184 182 179 178 180 187 179 180 172 166 147 75 36 16 12 6 354 350 346 341
153 132 203 128 210 171 149 167 79 127 154 177 235 249 216 212 176 187 194 195 195 195 196 197 195 195 197 197 200 206 203 197 196 197 223 272 335 349 348 343 340 337 335 331
187 133 163 208 285 327 197 182 167 163 213 241 163 253 154 230 195 187 195 198 199 200 202 203 206 209 214 217 216 215 214 215 217 228 240 269 300 315 319 320 321 322 322 322
179 196 93 357 335 322 214 194 146 102 79 185 155 248 228 185 164 199 200 201 203 205 209 212 215 220 226 228 224 222 223 221 223 226 246 266 278 292 302 309 315 319 320 319
166 157 202 218 192 145 187 186 178 169 162 174 224 185 214 196 192 193 207 208 205 208 212 218 222 229 238 238 232 228 224 223 228 238 253 266 278 286 292 304 314 317 317 316
146 209 130 63 58 102 187 175 181 200 211 198 204 226 191 198 200 203 210 204 200 204 210 217 227 243 245 238 234 230 225 227 233 243 257 272 278 279 282 294 304 309 313 313
116 166 134 160 28 58 263 229 198 206 214 248 165 245 191 209 195 184 202 193 194 202 207 235 245 243 244 240 236 233 229 228 235 247 259 269 273 274 275 282 295 305 311 310
154 139 140 190 125 124 274 208 190 179 181 183 209 226 154 179 186 194 197 199 208 223 235 231 238 245 248 247 235 231 230 232 241 252 261 267 270 271 273 279 291 298 305 306
145 140 132 132 150 215 228 35 201 201 196 192 86 181 183 193 203 214 215 220 222 226 223 234 245 245 243 239 226 224 230 238 248 258 264 269 273 270 271 275 285 293 300 303
331 136 138 165 206 343 159 202 156 164 237 198 203 170 178 149 145 209 204 198 197 212 234 242 243 242 238 226 222 229 234 249 261 265 271 274 275 269 269 275 285 293 297 301
321 338 178 155 186 207 279 148 146 113 279 208 201 166 149 145 139 234 187 190 213 234 244 252 238 224 221 220 219 235 262 265 264 269 272 270 266 266 268 276 284 291 298 301
128 140 210 181 218 281 202 176 152 132 237 171 192 179 162 180 207 161 174 197 241 246 254 249 244 242 235 221 249 269 265 263 262 263 266 265 264 266 271 279 287 294 300 298
160 160 187 127 173 256 151 119 171 166 128 158 171 187 196 216 203 185 192 214 247 249 247 240 240 237 231 243 267 267 265 262 259 258 261 262 264 269 276 283 291 297 295 296
201 179 172 184 209 354 175 137 156 151 151 168 182 196 213 221 210 207 207 238 252 253 247 230 240 243 242 251 264 270 270 260 257 259 261 264 269 273 278 285 293 294 293 295
250 148 165 131 192 209 200 191 183 172 173 191 209 219 222 230 228 215 230 272 264 254 250 232 238 246 251 260 270 272 265 257 257 260 264 270 273 277 283 290 292 291 292 295
174 138 140 346 1 154 224 213 194 202 209 214 227 233 238 240 231 240 247 267 265 263 251 244 247 252 254 263 268 268 261 257 260 265 270 273 277 282 288 289 289 289 292 295
188 158 167 199 191 178 206 210 215 228 235 243 235 240 248 246 248 242 259 270 260 265 247 251 250 248 260 264 265 259 258 261 265 269 273 278 282 287 288 286 284 286 292 295